| time (UTC) | temp F | wind direction | speed MPH | gust MPH | rain 1hr in | rain 24hr in | rain mn in | humidity % | barometer mb |
| 20260505031328 | 70 | 170 | 5.0 | 14.0 | 0.00 | 0.00 | 0.00 | 57 | 1008.0 |
| 20260505030834 | 70 | 171 | 6.0 | 12.0 | 0.00 | 0.00 | 0.00 | 57 | 1008.0 |
| 20260505030342 | 70 | 207 | 8.0 | 13.0 | 0.00 | 0.00 | 0.00 | 56 | 1007.9 |
| 20260505025826 | 70 | 184 | 9.0 | 13.0 | 0.00 | 0.00 | 0.00 | 56 | 1007.9 |
| 20260505025328 | 70 | 193 | 7.0 | 12.0 | 0.00 | 0.00 | 0.00 | 56 | 1007.9 |
| 20260505024853 | 70 | 207 | 7.0 | 13.0 | 0.00 | 0.00 | 0.00 | 56 | 1007.9 |
| 20260505024356 | 70 | 197 | 6.0 | 13.0 | 0.00 | 0.00 | 0.00 | 56 | 1007.8 |
| 20260505023840 | 70 | 198 | 6.0 | 12.0 | 0.00 | 0.00 | 0.00 | 56 | 1008.0 |
| 20260505023324 | 70 | 215 | 6.0 | 11.0 | 0.00 | 0.00 | 0.00 | 56 | 1008.0 |
| 20260505022832 | 70 | 209 | 6.0 | 11.0 | 0.00 | 0.00 | 0.00 | 55 | 1007.9 |
| 20260505022356 | 70 | 214 | 5.0 | 11.0 | 0.00 | 0.00 | 0.00 | 56 | 1007.9 |
| 20260505021839 | 70 | 202 | 7.0 | 12.0 | 0.00 | 0.00 | 0.00 | 56 | 1007.7 |
| 20260505021328 | 70 | 211 | 7.0 | 12.0 | 0.00 | 0.00 | 0.00 | 56 | 1007.8 |
| 20260505020832 | 70 | 194 | 4.0 | 7.0 | 0.00 | 0.00 | 0.00 | 56 | 1007.8 |
| 20260505020339 | 70 | 207 | 4.0 | 7.0 | 0.00 | 0.00 | 0.00 | 55 | 1007.8 |
| 20260505015825 | 70 | 211 | 5.0 | 7.0 | 0.00 | 0.00 | 0.00 | 55 | 1007.8 |
| 20260505015332 | 69 | 197 | 4.0 | 7.0 | 0.00 | 0.00 | 0.00 | 56 | 1007.7 |
| 20260505014837 | 69 | 182 | 2.0 | 4.0 | 0.00 | 0.00 | 0.00 | 57 | 1007.8 |
| 20260505014341 | 69 | 221 | 1.0 | 3.0 | 0.00 | 0.00 | 0.00 | 57 | 1007.9 |
| 20260505013826 | 69 | 221 | 1.0 | 2.0 | 0.00 | 0.00 | 0.00 | 57 | 1007.9 |
| 20260505013330 | 70 | 221 | 0.0 | 1.0 | 0.00 | 0.00 | 0.00 | 56 | 1007.9 |
| 20260505012855 | 70 | 221 | 0.0 | 3.0 | 0.00 | 0.00 | 0.00 | 55 | 1007.7 |
| 20260505012357 | 71 | 221 | 0.0 | 4.0 | 0.00 | 0.00 | 0.00 | 55 | 1007.6 |
| 20260505011841 | 71 | 195 | 1.0 | 4.0 | 0.00 | 0.00 | 0.00 | 52 | 1007.6 |
| 20260505011330 | 72 | 209 | 1.0 | 7.0 | 0.00 | 0.00 | 0.00 | 52 | 1007.4 |
| 20260505010834 | 72 | 197 | 4.0 | 7.0 | 0.00 | 0.00 | 0.00 | 51 | 1007.4 |
| 20260505010339 | 72 | 194 | 3.0 | 7.0 | 0.00 | 0.00 | 0.00 | 51 | 1007.4 |
| 20260505005842 | 71 | 183 | 2.0 | 6.0 | 0.00 | 0.00 | 0.00 | 51 | 1007.2 |
| 20260505005326 | 71 | 210 | 1.0 | 2.0 | 0.00 | 0.00 | 0.00 | 53 | 1007.2 |
| 20260505004830 | 72 | 210 | 0.0 | 4.0 | 0.00 | 0.00 | 0.00 | 53 | 1007.1 |
| 20260505004335 | 73 | 210 | 0.0 | 10.0 | 0.00 | 0.00 | 0.00 | 51 | 1007.3 |
| 20260505003821 | 73 | 213 | 3.0 | 10.0 | 0.00 | 0.00 | 0.00 | 48 | 1007.2 |
| 20260505003329 | 73 | 167 | 5.0 | 11.0 | 0.00 | 0.00 | 0.00 | 46 | 1006.9 |
| 20260505002834 | 73 | 203 | 4.0 | 11.0 | 0.00 | 0.00 | 0.00 | 45 | 1006.8 |
| 20260505002337 | 73 | 187 | 3.0 | 7.0 | 0.00 | 0.00 | 0.00 | 45 | 1006.7 |
| 20260505001826 | 73 | 200 | 2.0 | 7.0 | 0.00 | 0.00 | 0.00 | 46 | 1006.7 |
| 20260505001329 | 73 | 192 | 3.0 | 6.0 | 0.00 | 0.00 | 0.00 | 46 | 1006.6 |
| 20260505000837 | 74 | 190 | 2.0 | 6.0 | 0.00 | 0.00 | 0.00 | 45 | 1006.6 |
| 20260505000343 | 74 | 154 | 3.0 | 6.0 | 0.00 | 0.00 | 0.00 | 45 | 1006.6 |
| 20260504235846 | 74 | 155 | 4.0 | 6.0 | 0.00 | 0.00 | 0.00 | 45 | 1006.6 |
| 20260504235328 | 74 | 167 | 2.0 | 7.0 | 0.00 | 0.00 | 0.00 | 44 | 1006.7 |
| 20260504234834 | 75 | 178 | 2.0 | 8.0 | 0.00 | 0.00 | 0.00 | 43 | 1006.6 |
| 20260504234341 | 75 | 190 | 2.0 | 11.0 | 0.00 | 0.00 | 0.00 | 43 | 1006.6 |
| 20260504233825 | 76 | 184 | 7.0 | 14.0 | 0.00 | 0.00 | 0.00 | 41 | 1006.6 |
| 20260504233330 | 76 | 205 | 4.0 | 14.0 | 0.00 | 0.00 | 0.00 | 42 | 1006.5 |
| 20260504232834 | 76 | 189 | 7.0 | 14.0 | 0.00 | 0.00 | 0.00 | 41 | 1006.5 |
| 20260504232341 | 76 | 225 | 4.0 | 14.0 | 0.00 | 0.00 | 0.00 | 42 | 1006.5 |
| 20260504231826 | 76 | 196 | 5.0 | 12.0 | 0.00 | 0.00 | 0.00 | 42 | 1006.4 |
| 20260504231330 | 77 | 174 | 7.0 | 16.0 | 0.00 | 0.00 | 0.00 | 41 | 1006.4 |
| 20260504230834 | 77 | 196 | 6.0 | 16.0 | 0.00 | 0.00 | 0.00 | 40 | 1006.4 |
| 20260504230340 | 77 | 173 | 6.0 | 10.0 | 0.00 | 0.00 | 0.00 | 40 | 1006.4 |
| 20260504225828 | 77 | 213 | 3.0 | 8.0 | 0.00 | 0.00 | 0.00 | 40 | 1006.4 |
| 20260504225332 | 77 | 194 | 2.0 | 8.0 | 0.00 | 0.00 | 0.00 | 40 | 1006.4 |
| 20260504224836 | 77 | 198 | 4.0 | 9.0 | 0.00 | 0.00 | 0.00 | 39 | 1006.4 |
| 20260504224341 | 77 | 189 | 3.0 | 10.0 | 0.00 | 0.00 | 0.00 | 40 | 1006.4 |
| 20260504223845 | 77 | 188 | 3.0 | 10.0 | 0.00 | 0.00 | 0.00 | 40 | 1006.5 |
| 20260504223329 | 77 | 207 | 4.0 | 7.0 | 0.00 | 0.00 | 0.00 | 40 | 1006.5 |
| 20260504222837 | 77 | 173 | 4.0 | 9.0 | 0.00 | 0.00 | 0.00 | 40 | 1006.5 |
| 20260504222341 | 77 | 168 | 3.0 | 12.0 | 0.00 | 0.00 | 0.00 | 40 | 1006.6 |
| 20260504221825 | 77 | 193 | 4.0 | 14.0 | 0.00 | 0.00 | 0.00 | 39 | 1006.5 |
| 20260504221330 | 78 | 195 | 5.0 | 14.0 | 0.00 | 0.00 | 0.00 | 39 | 1006.6 |
| 20260504220835 | 78 | 196 | 5.0 | 13.0 | 0.00 | 0.00 | 0.00 | 38 | 1006.6 |
| 20260504220340 | 79 | 208 | 5.0 | 13.0 | 0.00 | 0.00 | 0.00 | 38 | 1006.5 |
| 20260504215904 | 79 | 206 | 8.0 | 13.0 | 0.00 | 0.00 | 0.00 | 37 | 1006.5 |
| 20260504215326 | 78 | 201 | 8.0 | 13.0 | 0.00 | 0.00 | 0.00 | 37 | 1006.6 |
| 20260504214831 | 78 | 202 | 5.0 | 13.0 | 0.00 | 0.00 | 0.00 | 39 | 1006.5 |
| 20260504214336 | 78 | 188 | 7.0 | 13.0 | 0.00 | 0.00 | 0.00 | 38 | 1006.5 |
| 20260504213840 | 79 | 203 | 6.0 | 14.0 | 0.00 | 0.00 | 0.00 | 38 | 1006.5 |
| 20260504213345 | 78 | 215 | 7.0 | 14.0 | 0.00 | 0.00 | 0.00 | 39 | 1006.6 |
| 20260504212832 | 79 | 185 | 9.0 | 16.0 | 0.00 | 0.00 | 0.00 | 36 | 1006.5 |
| 20260504212336 | 79 | 221 | 6.0 | 18.0 | 0.00 | 0.00 | 0.00 | 37 | 1006.4 |
| 20260504211859 | 79 | 198 | 5.0 | 18.0 | 0.00 | 0.00 | 0.00 | 37 | 1006.4 |
| 20260504211326 | 79 | 199 | 5.0 | 13.0 | 0.00 | 0.00 | 0.00 | 36 | 1006.4 |
| 20260504210851 | 78 | 221 | 5.0 | 17.0 | 0.00 | 0.00 | 0.00 | 39 | 1006.5 |
| 20260504210354 | 78 | 175 | 8.0 | 17.0 | 0.00 | 0.00 | 0.00 | 39 | 1006.5 |
| 20260504205841 | 78 | 187 | 7.0 | 17.0 | 0.00 | 0.00 | 0.00 | 40 | 1006.5 |
| 20260504205323 | 78 | 199 | 6.0 | 11.0 | 0.00 | 0.00 | 0.00 | 38 | 1006.5 |
| 20260504204831 | 79 | 232 | 6.0 | 13.0 | 0.00 | 0.00 | 0.00 | 41 | 1006.6 |
| 20260504204335 | 79 | 198 | 3.0 | 17.0 | 0.00 | 0.00 | 0.00 | 38 | 1006.6 |
| 20260504203840 | 79 | 196 | 5.0 | 17.0 | 0.00 | 0.00 | 0.00 | 38 | 1006.6 |
| 20260504203325 | 79 | 202 | 8.0 | 14.0 | 0.00 | 0.00 | 0.00 | 40 | 1006.6 |
| 20260504202829 | 79 | 199 | 7.0 | 14.0 | 0.00 | 0.00 | 0.00 | 37 | 1006.6 |
| 20260504202337 | 78 | 188 | 4.0 | 13.0 | 0.00 | 0.00 | 0.00 | 41 | 1006.8 |
| 20260504201841 | 78 | 202 | 4.0 | 18.0 | 0.00 | 0.00 | 0.00 | 38 | 1006.8 |
| 20260504201326 | 77 | 239 | 8.0 | 18.0 | 0.00 | 0.00 | 0.00 | 39 | 1007.0 |
| 20260504200832 | 78 | 193 | 6.0 | 14.0 | 0.00 | 0.00 | 0.00 | 42 | 1007.0 |
| 20260504200340 | 78 | 204 | 8.0 | 14.0 | 0.00 | 0.00 | 0.00 | 38 | 1007.1 |
| 20260504195844 | 78 | 168 | 8.0 | 14.0 | 0.00 | 0.00 | 0.00 | 37 | 1007.2 |
| 20260504195328 | 77 | 130 | 4.0 | 15.0 | 0.00 | 0.00 | 0.00 | 41 | 1007.2 |
| 20260504194851 | 77 | 223 | 6.0 | 15.0 | 0.00 | 0.00 | 0.00 | 40 | 1007.2 |
| 20260504194338 | 77 | 184 | 6.0 | 13.0 | 0.00 | 0.00 | 0.00 | 38 | 1007.5 |
| 20260504193843 | 77 | 217 | 8.0 | 14.0 | 0.00 | 0.00 | 0.00 | 38 | 1007.5 |
| 20260504193346 | 77 | 207 | 7.0 | 16.0 | 0.00 | 0.00 | 0.00 | 39 | 1007.7 |
| 20260504192833 | 77 | 186 | 4.0 | 16.0 | 0.00 | 0.00 | 0.00 | 39 | 1007.6 |
| 20260504192340 | 78 | 255 | 3.0 | 10.0 | 0.00 | 0.00 | 0.00 | 42 | 1007.9 |
| 20260504191904 | 77 | 206 | 4.0 | 10.0 | 0.00 | 0.00 | 0.00 | 42 | 1008.0 |
| 20260504191327 | 77 | 192 | 5.0 | 11.0 | 0.00 | 0.00 | 0.00 | 39 | 1008.1 |
| 20260504190830 | 76 | 181 | 5.0 | 13.0 | 0.00 | 0.00 | 0.00 | 38 | 1008.0 |
| 20260504190338 | 76 | 194 | 6.0 | 13.0 | 0.00 | 0.00 | 0.00 | 41 | 1008.2 |
| 20260504185842 | 76 | 209 | 3.0 | 12.0 | 0.00 | 0.00 | 0.00 | 40 | 1008.3 |
| 20260504185346 | 76 | 207 | 5.0 | 13.0 | 0.00 | 0.00 | 0.00 | 43 | 1008.2 |
| 20260504184828 | 75 | 201 | 9.0 | 13.0 | 0.00 | 0.00 | 0.00 | 40 | 1008.5 |
| 20260504184336 | 75 | 192 | 7.0 | 13.0 | 0.00 | 0.00 | 0.00 | 43 | 1008.7 |
| 20260504183901 | 76 | 216 | 3.0 | 15.0 | 0.00 | 0.00 | 0.00 | 40 | 1008.7 |
| 20260504183324 | 76 | 225 | 8.0 | 15.0 | 0.00 | 0.00 | 0.00 | 39 | 1008.7 |
| 20260504182351 | 76 | 176 | 6.0 | 11.0 | 0.00 | 0.00 | 0.00 | 41 | 1008.9 |
| 20260504181838 | 76 | 186 | 5.0 | 7.0 | 0.00 | 0.00 | 0.00 | 43 | 1009.0 |
| 20260504181327 | 76 | 243 | 3.0 | 6.0 | 0.00 | 0.00 | 0.00 | 42 | 1009.1 |
| 20260504180831 | 75 | 269 | 1.0 | 12.0 | 0.00 | 0.00 | 0.00 | 44 | 1009.2 |
| 20260504180336 | 75 | 182 | 4.0 | 15.0 | 0.00 | 0.00 | 0.00 | 41 | 1009.4 |
| 20260504175840 | 75 | 189 | 10.0 | 15.0 | 0.00 | 0.00 | 0.00 | 41 | 1009.3 |
| 20260504175404 | 74 | 202 | 6.0 | 13.0 | 0.00 | 0.00 | 0.00 | 42 | 1009.5 |
| 20260504174827 | 75 | 203 | 5.0 | 10.0 | 0.00 | 0.00 | 0.00 | 43 | 1009.5 |
| 20260504174332 | 74 | 195 | 4.0 | 11.0 | 0.00 | 0.00 | 0.00 | 45 | 1009.4 |
| 20260504173837 | 75 | 206 | 3.0 | 12.0 | 0.00 | 0.00 | 0.00 | 45 | 1009.5 |
| 20260504173341 | 74 | 203 | 6.0 | 12.0 | 0.00 | 0.00 | 0.00 | 42 | 1009.8 |
| 20260504172826 | 74 | 196 | 3.0 | 11.0 | 0.00 | 0.00 | 0.00 | 43 | 1009.7 |
| 20260504172329 | 74 | 200 | 6.0 | 11.0 | 0.00 | 0.00 | 0.00 | 42 | 1009.7 |
| 20260504171837 | 74 | 185 | 8.0 | 11.0 | 0.00 | 0.00 | 0.00 | 41 | 1009.8 |
| 20260504171324 | 74 | 98 | 3.0 | 6.0 | 0.00 | 0.00 | 0.00 | 42 | 1009.8 |
| 20260504170852 | 74 | 266 | 3.0 | 12.0 | 0.00 | 0.00 | 0.00 | 44 | 1010.1 |
| 20260504170335 | 73 | 190 | 6.0 | 13.0 | 0.00 | 0.00 | 0.00 | 40 | 1010.2 |
| 20260504160334 | 71 | 181 | 6.0 | 12.0 | 0.00 | 0.00 | 0.00 | 42 | 1010.9 |
| 20260504150847 | 69 | 221 | 6.0 | 12.0 | 0.00 | 0.00 | 0.00 | 45 | 1011.6 |
| 20260504150333 | 68 | 175 | 3.0 | 7.0 | 0.00 | 0.00 | 0.00 | 47 | 1011.6 |
| 20260504140843 | 65 | 191 | 2.0 | 11.0 | 0.00 | 0.00 | 0.00 | 49 | 1012.0 |
| 20260504140331 | 65 | 192 | 7.0 | 11.0 | 0.00 | 0.00 | 0.00 | 44 | 1012.0 |
| 20260504130336 | 59 | 198 | 5.0 | 12.0 | 0.00 | 0.00 | 0.00 | 53 | 1012.2 |
| 20260504110325 | 49 | 226 | 1.0 | 2.0 | 0.00 | 0.00 | 0.00 | 67 | 1012.7 |
| 20260504100341 | 47 | 195 | 0.0 | 0.0 | 0.00 | 0.00 | 0.00 | 70 | 1012.7 |
| 20260504081829 | 49 | 195 | 0.0 | 0.0 | 0.00 | 0.00 | 0.00 | 63 | 1013.1 |
| 20260504081334 | 49 | 195 | 0.0 | 1.0 | 0.00 | 0.00 | 0.00 | 61 | 1013.2 |
| 20260504080838 | 49 | 195 | 0.0 | 1.0 | 0.00 | 0.00 | 0.00 | 61 | 1013.1 |
| 20260504080327 | 49 | 195 | 0.0 | 2.0 | 0.00 | 0.00 | 0.00 | 61 | 1013.1 |
| 20260504070336 | 46 | 98 | 0.0 | 0.0 | 0.00 | 0.00 | 0.00 | 67 | 1013.3 |
| 20260504050330 | 48 | 98 | 1.0 | 3.0 | 0.00 | 0.00 | 0.00 | 64 | 1013.6 |
| 20260504045835 | 48 | 180 | 1.0 | 2.0 | 0.00 | 0.00 | 0.00 | 64 | 1013.5 |
| 20260504045338 | 48 | 180 | 1.0 | 2.0 | 0.00 | 0.00 | 0.00 | 64 | 1013.5 |
| 20260504044843 | 48 | 287 | 1.0 | 2.0 | 0.00 | 0.00 | 0.00 | 63 | 1013.6 |
| 20260504044348 | 48 | 287 | 1.0 | 2.0 | 0.00 | 0.00 | 0.00 | 63 | 1013.7 |
| 20260504043831 | 48 | 287 | 1.0 | 2.0 | 0.00 | 0.00 | 0.00 | 62 | 1013.7 |
| 20260504043336 | 48 | 287 | 1.0 | 2.0 | 0.00 | 0.00 | 0.00 | 63 | 1013.6 |
| 20260504042840 | 48 | 287 | 2.0 | 2.0 | 0.00 | 0.00 | 0.00 | 63 | 1013.6 |
| 20260504042323 | 48 | 287 | 0.0 | 0.0 | 0.00 | 0.00 | 0.00 | 62 | 1013.4 |
| 20260504041830 | 48 | 287 | 0.0 | 0.0 | 0.00 | 0.00 | 0.00 | 61 | 1013.4 |
| 20260504041335 | 48 | 287 | 0.0 | 0.0 | 0.00 | 0.00 | 0.00 | 61 | 1013.4 |
| 20260504040843 | 48 | 287 | 0.0 | 0.0 | 0.00 | 0.00 | 0.00 | 61 | 1013.5 |
| 20260504040328 | 48 | 287 | 0.0 | 0.0 | 0.00 | 0.00 | 0.00 | 61 | 1013.5 |
| 20260504035832 | 48 | 287 | 0.0 | 0.0 | 0.00 | 0.00 | 0.00 | 61 | 1013.5 |
| 20260504035335 | 48 | 287 | 0.0 | 0.0 | 0.00 | 0.00 | 0.00 | 62 | 1013.4 |
| 20260504034840 | 48 | 287 | 0.0 | 0.0 | 0.00 | 0.00 | 0.00 | 63 | 1013.4 |
| 20260504034324 | 48 | 287 | 0.0 | 0.0 | 0.00 | 0.00 | 0.00 | 62 | 1013.4 |
| 20260504033829 | 48 | 287 | 0.0 | 0.0 | 0.00 | 0.00 | 0.00 | 62 | 1013.4 |
| 20260504033337 | 49 | 287 | 0.0 | 0.0 | 0.00 | 0.00 | 0.00 | 61 | 1013.4 |
| 20260504032841 | 49 | 287 | 0.0 | 0.0 | 0.00 | 0.00 | 0.00 | 61 | 1013.5 |
| 20260504032325 | 49 | 287 | 0.0 | 0.0 | 0.00 | 0.00 | 0.00 | 61 | 1013.5 |
| 20260504031833 | 49 | 287 | 0.0 | 0.0 | 0.00 | 0.00 | 0.00 | 60 | 1013.6 |